Year,Month,Day,Hour,Minute,Value (Times are PST for windspeed in km/hr)
2016,10,15,00,00,6.20
2016,10,15,00,01,7.50
2016,10,15,00,02,11.70
2016,10,15,00,03,9.30
2016,10,15,00,04,8.20
2016,10,15,00,05,6.60
2016,10,15,00,06,5.70
2016,10,15,00,07,6.20
2016,10,15,00,08,8.60
2016,10,15,00,09,6.30
2016,10,15,00,10,6.80
2016,10,15,00,11,9.40
2016,10,15,00,12,5.60
2016,10,15,00,13,7.20
2016,10,15,00,14,6.40
2016,10,15,00,15,6.40
2016,10,15,00,16,8.00
2016,10,15,00,17,6.70
2016,10,15,00,18,8.30
2016,10,15,00,19,6.10
2016,10,15,00,20,3.40
2016,10,15,00,21,3.80
2016,10,15,00,22,3.60
2016,10,15,00,23,8.00
2016,10,15,00,24,7.50
2016,10,15,00,25,3.70
2016,10,15,00,26,3.70
2016,10,15,00,27,3.20
2016,10,15,00,28,3.00
2016,10,15,00,29,3.70
2016,10,15,00,30,4.10
2016,10,15,00,31,6.10
2016,10,15,00,32,3.50
2016,10,15,00,33,7.00
2016,10,15,00,34,5.60
2016,10,15,00,35,5.10
2016,10,15,00,36,3.20
2016,10,15,00,37,5.00
2016,10,15,00,38,6.10
2016,10,15,00,39,1.30
2016,10,15,00,40,1.70
2016,10,15,00,41,0.60
2016,10,15,00,42,0.40
2016,10,15,00,43,0.20
2016,10,15,00,44,0.20
2016,10,15,00,45,0.00
2016,10,15,00,46,0.00
2016,10,15,00,47,1.00
2016,10,15,00,48,2.80
2016,10,15,00,49,2.00
2016,10,15,00,50,0.00
2016,10,15,00,51,0.00
2016,10,15,00,52,0.00
2016,10,15,00,53,1.30
2016,10,15,00,54,0.70
2016,10,15,00,55,2.30
2016,10,15,00,56,1.50
2016,10,15,00,57,2.10
2016,10,15,00,58,1.00
2016,10,15,00,59,0.00
2016,10,15,01,00,0.00
2016,10,15,01,01,0.00
2016,10,15,01,02,0.00
2016,10,15,01,03,0.00
2016,10,15,01,04,0.00
2016,10,15,01,05,0.00
2016,10,15,01,06,0.20
2016,10,15,01,07,0.00
2016,10,15,01,08,0.00
2016,10,15,01,09,0.00
2016,10,15,01,10,0.50
2016,10,15,01,11,0.50
2016,10,15,01,12,0.60
2016,10,15,01,13,0.10
2016,10,15,01,14,0.00
2016,10,15,01,15,1.30
2016,10,15,01,16,0.80
2016,10,15,01,17,1.00
2016,10,15,01,18,3.30
2016,10,15,01,19,3.00
2016,10,15,01,20,3.60
2016,10,15,01,21,2.10
2016,10,15,01,22,2.00
2016,10,15,01,23,2.00
2016,10,15,01,24,2.00
2016,10,15,01,25,3.70
2016,10,15,01,26,4.00
2016,10,15,01,27,6.00
2016,10,15,01,28,3.10
2016,10,15,01,29,4.50
2016,10,15,01,30,4.30
2016,10,15,01,31,6.40
2016,10,15,01,32,3.70
2016,10,15,01,33,3.40
2016,10,15,01,34,3.40
2016,10,15,01,35,4.00
2016,10,15,01,36,1.50
2016,10,15,01,37,4.20
2016,10,15,01,38,5.40
2016,10,15,01,39,2.60
2016,10,15,01,40,1.20
2016,10,15,01,41,4.30
2016,10,15,01,42,4.20
2016,10,15,01,43,2.50
2016,10,15,01,44,3.40
2016,10,15,01,45,3.60
2016,10,15,01,46,2.70
2016,10,15,01,47,0.70
2016,10,15,01,48,2.10
2016,10,15,01,49,2.10
2016,10,15,01,50,3.20
2016,10,15,01,51,0.80
2016,10,15,01,52,3.00
2016,10,15,01,53,1.40
2016,10,15,01,54,0.20
2016,10,15,01,55,0.90
2016,10,15,01,56,1.10
2016,10,15,01,57,3.00
2016,10,15,01,58,3.50
2016,10,15,01,59,5.10
2016,10,15,02,00,3.10
2016,10,15,02,01,2.30
2016,10,15,02,02,1.50
2016,10,15,02,03,1.50
2016,10,15,02,04,3.00
2016,10,15,02,05,1.50
2016,10,15,02,06,1.10
2016,10,15,02,07,1.80
2016,10,15,02,08,3.10
2016,10,15,02,09,2.00
2016,10,15,02,10,2.30
2016,10,15,02,11,1.20
2016,10,15,02,12,3.30
2016,10,15,02,13,5.80
2016,10,15,02,14,4.40
2016,10,15,02,15,4.20
2016,10,15,02,16,2.00
2016,10,15,02,17,0.50
2016,10,15,02,18,3.10
2016,10,15,02,19,4.20
2016,10,15,02,20,5.60
2016,10,15,02,21,3.90
2016,10,15,02,22,2.90
2016,10,15,02,23,1.20
2016,10,15,02,24,1.60
2016,10,15,02,25,2.40
2016,10,15,02,26,2.30
2016,10,15,02,27,3.20
2016,10,15,02,28,3.20
2016,10,15,02,29,3.40
2016,10,15,02,30,3.40
2016,10,15,02,31,3.40
2016,10,15,02,32,3.70
2016,10,15,02,33,4.00
2016,10,15,02,34,1.60
2016,10,15,02,35,3.10
2016,10,15,02,36,0.90
2016,10,15,02,37,0.90
2016,10,15,02,38,1.30
2016,10,15,02,39,0.00
2016,10,15,02,40,1.80
2016,10,15,02,41,0.30
2016,10,15,02,42,0.20
2016,10,15,02,43,0.20
2016,10,15,02,44,0.50
2016,10,15,02,45,0.40
2016,10,15,02,46,2.10
2016,10,15,02,47,3.50
2016,10,15,02,48,4.10
2016,10,15,02,49,3.10
2016,10,15,02,50,3.90
2016,10,15,02,51,4.80
2016,10,15,02,52,3.80
2016,10,15,02,53,1.60
2016,10,15,02,54,2.30
2016,10,15,02,55,1.20
2016,10,15,02,56,0.90
2016,10,15,02,57,1.10
2016,10,15,02,58,2.80
2016,10,15,02,59,4.10
2016,10,15,03,00,4.90
2016,10,15,03,01,4.50
2016,10,15,03,02,4.70
2016,10,15,03,03,4.20
2016,10,15,03,04,3.80
2016,10,15,03,05,1.40
2016,10,15,03,06,0.30
2016,10,15,03,07,1.20
2016,10,15,03,08,1.90
2016,10,15,03,09,2.40
2016,10,15,03,10,2.10
2016,10,15,03,11,2.00
2016,10,15,03,12,1.30
2016,10,15,03,13,4.20
2016,10,15,03,14,4.60
2016,10,15,03,15,3.70
2016,10,15,03,16,4.10
2016,10,15,03,17,5.80
2016,10,15,03,18,5.60
2016,10,15,03,19,5.30
2016,10,15,03,20,3.20
2016,10,15,03,21,3.50
2016,10,15,03,22,4.00
2016,10,15,03,23,3.50
2016,10,15,03,24,4.70
2016,10,15,03,25,2.70
2016,10,15,03,26,2.50
2016,10,15,03,27,0.80
2016,10,15,03,28,3.10
2016,10,15,03,29,2.10
2016,10,15,03,30,2.10
2016,10,15,03,31,2.40
2016,10,15,03,32,2.30
2016,10,15,03,33,2.10
2016,10,15,03,34,1.50
2016,10,15,03,35,1.00
2016,10,15,03,36,1.40
2016,10,15,03,37,0.20
2016,10,15,03,38,1.30
2016,10,15,03,39,1.90
2016,10,15,03,40,3.00
2016,10,15,03,41,1.10
2016,10,15,03,42,1.00
2016,10,15,03,43,0.20
2016,10,15,03,44,0.20
2016,10,15,03,45,0.50
2016,10,15,03,46,0.10
2016,10,15,03,47,0.00
2016,10,15,03,48,0.20
2016,10,15,03,49,0.10
2016,10,15,03,50,0.40
2016,10,15,03,51,0.30
2016,10,15,03,52,2.10
2016,10,15,03,53,1.90
2016,10,15,03,54,1.80
2016,10,15,03,55,2.10
2016,10,15,03,56,1.40
2016,10,15,03,57,0.20
2016,10,15,03,58,1.60
2016,10,15,03,59,0.30
2016,10,15,04,00,0.10
2016,10,15,04,01,0.00
2016,10,15,04,02,0.10
2016,10,15,04,03,0.20
2016,10,15,04,04,0.10
2016,10,15,04,05,0.00
2016,10,15,04,06,0.00
2016,10,15,04,07,0.00
2016,10,15,04,08,0.00
2016,10,15,04,09,0.20
2016,10,15,04,10,0.10
2016,10,15,04,11,0.10
2016,10,15,04,12,0.00
2016,10,15,04,13,0.00
2016,10,15,04,14,0.00
2016,10,15,04,15,0.00
2016,10,15,04,16,0.00
2016,10,15,04,17,0.00
2016,10,15,04,18,0.50
2016,10,15,04,19,1.30
2016,10,15,04,20,1.10
2016,10,15,04,21,0.90
2016,10,15,04,22,0.30
2016,10,15,04,23,0.60
2016,10,15,04,24,0.00
2016,10,15,04,25,0.50
2016,10,15,04,26,0.40
2016,10,15,04,27,2.10
2016,10,15,04,28,0.20
2016,10,15,04,29,0.00
2016,10,15,04,30,0.40
2016,10,15,04,31,2.00
2016,10,15,04,32,1.60
2016,10,15,04,33,3.40
2016,10,15,04,34,3.00
2016,10,15,04,35,2.70
2016,10,15,04,36,1.40
2016,10,15,04,37,2.50
2016,10,15,04,38,3.70
2016,10,15,04,39,2.20
2016,10,15,04,40,8.80
2016,10,15,04,41,6.10
2016,10,15,04,42,4.80
2016,10,15,04,43,2.80
2016,10,15,04,44,2.80
2016,10,15,04,45,4.70
2016,10,15,04,46,5.60
2016,10,15,04,47,8.60
2016,10,15,04,48,7.30
2016,10,15,04,49,8.10
2016,10,15,04,50,7.70
2016,10,15,04,51,4.30
2016,10,15,04,52,4.40
2016,10,15,04,53,5.80
2016,10,15,04,54,12.00
2016,10,15,04,55,8.50
2016,10,15,04,56,14.70
2016,10,15,04,57,10.20
2016,10,15,04,58,9.10
2016,10,15,04,59,6.30
2016,10,15,05,00,8.40
2016,10,15,05,01,5.50
2016,10,15,05,02,7.10
2016,10,15,05,03,3.90
2016,10,15,05,04,6.70
2016,10,15,05,05,6.30
2016,10,15,05,06,6.40
2016,10,15,05,07,5.70
2016,10,15,05,08,6.90
2016,10,15,05,09,5.00
2016,10,15,05,10,8.10
2016,10,15,05,11,8.90
2016,10,15,05,12,11.60
2016,10,15,05,13,10.60
2016,10,15,05,14,12.50
2016,10,15,05,15,10.80
2016,10,15,05,16,7.20
2016,10,15,05,17,6.50
2016,10,15,05,18,8.70
2016,10,15,05,19,8.90
2016,10,15,05,20,10.70
2016,10,15,05,21,6.90
2016,10,15,05,22,9.20
2016,10,15,05,23,12.80
2016,10,15,05,24,9.40
2016,10,15,05,25,10.70
2016,10,15,05,26,9.00
2016,10,15,05,27,11.90
2016,10,15,05,28,7.90
2016,10,15,05,29,9.00
2016,10,15,05,30,8.90
2016,10,15,05,31,6.70
2016,10,15,05,32,6.20
2016,10,15,05,33,5.40
2016,10,15,05,34,4.90
2016,10,15,05,35,3.40
2016,10,15,05,36,9.80
2016,10,15,05,37,10.60
2016,10,15,05,38,7.90
2016,10,15,05,39,5.40
2016,10,15,05,40,4.50
2016,10,15,05,41,6.20
2016,10,15,05,42,5.00
2016,10,15,05,43,4.30
2016,10,15,05,44,7.40
2016,10,15,05,45,6.60
2016,10,15,05,46,6.10
2016,10,15,05,47,5.10
2016,10,15,05,48,2.60
2016,10,15,05,49,3.70
2016,10,15,05,50,2.80
2016,10,15,05,51,4.30
2016,10,15,05,52,3.10
2016,10,15,05,53,5.10
2016,10,15,05,54,7.70
2016,10,15,05,55,5.60
2016,10,15,05,56,5.00
2016,10,15,05,57,4.90
2016,10,15,05,58,4.50
2016,10,15,05,59,3.50
2016,10,15,06,00,6.70
2016,10,15,06,01,8.70
2016,10,15,06,02,5.80
2016,10,15,06,03,4.70
2016,10,15,06,04,4.30
2016,10,15,06,05,5.90
2016,10,15,06,06,1.80
2016,10,15,06,07,3.40
2016,10,15,06,08,3.70
2016,10,15,06,09,3.90
2016,10,15,06,10,5.30
2016,10,15,06,11,3.70
2016,10,15,06,12,2.80
2016,10,15,06,13,4.20
2016,10,15,06,14,3.60
2016,10,15,06,15,4.30
2016,10,15,06,16,3.10
2016,10,15,06,17,1.70
2016,10,15,06,18,2.70
2016,10,15,06,19,5.10
2016,10,15,06,20,3.50
2016,10,15,06,21,2.50
2016,10,15,06,22,1.80
2016,10,15,06,23,1.30
2016,10,15,06,24,7.00
2016,10,15,06,25,6.00
2016,10,15,06,26,4.70
2016,10,15,06,27,3.80
2016,10,15,06,28,5.70
2016,10,15,06,29,4.80
2016,10,15,06,30,2.70
2016,10,15,06,31,4.50
2016,10,15,06,32,3.40
2016,10,15,06,33,3.40
2016,10,15,06,34,6.50
2016,10,15,06,35,3.30
2016,10,15,06,36,4.60
2016,10,15,06,37,4.70
2016,10,15,06,38,5.80
2016,10,15,06,39,5.40
2016,10,15,06,40,5.60
2016,10,15,06,41,3.70
2016,10,15,06,42,3.00
2016,10,15,06,43,4.40
2016,10,15,06,44,2.10
2016,10,15,06,45,3.50
2016,10,15,06,46,2.70
2016,10,15,06,47,4.90
2016,10,15,06,48,6.30
2016,10,15,06,49,5.00
2016,10,15,06,50,3.10
2016,10,15,06,51,2.80
2016,10,15,06,52,4.30
2016,10,15,06,53,5.40
2016,10,15,06,54,5.10
2016,10,15,06,55,3.70
2016,10,15,06,56,4.80
2016,10,15,06,57,5.30
2016,10,15,06,58,5.10
2016,10,15,06,59,3.00
2016,10,15,07,00,3.50
2016,10,15,07,01,4.30
2016,10,15,07,02,3.80
2016,10,15,07,03,5.00
2016,10,15,07,04,3.50
2016,10,15,07,05,5.90
2016,10,15,07,06,6.40
2016,10,15,07,07,3.10
2016,10,15,07,08,2.90
2016,10,15,07,09,3.70
2016,10,15,07,10,2.80
2016,10,15,07,11,2.90
2016,10,15,07,12,4.90
2016,10,15,07,13,5.10
2016,10,15,07,14,2.70
2016,10,15,07,15,3.40
2016,10,15,07,16,3.80
2016,10,15,07,17,3.70
2016,10,15,07,18,3.90
2016,10,15,07,19,3.90
2016,10,15,07,20,3.40
2016,10,15,07,21,4.80
2016,10,15,07,22,5.40
2016,10,15,07,23,3.30
2016,10,15,07,24,5.00
2016,10,15,07,25,6.10
2016,10,15,07,26,5.10
2016,10,15,07,27,5.30
2016,10,15,07,28,5.00
2016,10,15,07,29,5.80
2016,10,15,07,30,7.80
2016,10,15,07,31,6.10
2016,10,15,07,32,3.60
2016,10,15,07,33,5.30
2016,10,15,07,34,3.70
2016,10,15,07,35,5.00
2016,10,15,07,36,4.10
2016,10,15,07,37,6.20
2016,10,15,07,38,5.40
2016,10,15,07,39,4.60
2016,10,15,07,40,4.50
2016,10,15,07,41,3.40
2016,10,15,07,42,4.70
2016,10,15,07,43,4.70
2016,10,15,07,44,5.30
2016,10,15,07,45,5.90
2016,10,15,07,46,6.50
2016,10,15,07,47,6.00
2016,10,15,07,48,5.50
2016,10,15,07,49,5.80
2016,10,15,07,50,4.60
2016,10,15,07,51,3.90
2016,10,15,07,52,2.60
2016,10,15,07,53,3.70
2016,10,15,07,54,6.80
2016,10,15,07,55,8.30
2016,10,15,07,56,6.20
2016,10,15,07,57,2.70
2016,10,15,07,58,3.90
2016,10,15,07,59,4.40
2016,10,15,08,00,2.80
2016,10,15,08,01,4.40
2016,10,15,08,02,3.20
2016,10,15,08,03,3.20
2016,10,15,08,04,4.00
2016,10,15,08,05,4.20
2016,10,15,08,06,5.80
2016,10,15,08,07,3.50
2016,10,15,08,08,3.70
2016,10,15,08,09,3.80
2016,10,15,08,10,6.10
2016,10,15,08,11,6.90
2016,10,15,08,12,5.50
2016,10,15,08,13,5.70
2016,10,15,08,14,5.40
2016,10,15,08,15,7.10
2016,10,15,08,16,6.70
2016,10,15,08,17,4.70
2016,10,15,08,18,5.30
2016,10,15,08,19,4.40
2016,10,15,08,20,5.80
2016,10,15,08,21,8.20
2016,10,15,08,22,6.10
2016,10,15,08,23,6.50
2016,10,15,08,24,8.40
2016,10,15,08,25,5.60
2016,10,15,08,26,8.10
2016,10,15,08,27,5.50
2016,10,15,08,28,4.10
2016,10,15,08,29,6.40
2016,10,15,08,30,4.30
2016,10,15,08,31,4.30
2016,10,15,08,32,6.20
2016,10,15,08,33,5.80
2016,10,15,08,34,6.60
2016,10,15,08,35,5.10
2016,10,15,08,36,4.80
2016,10,15,08,37,6.00
2016,10,15,08,38,5.40
2016,10,15,08,39,4.20
2016,10,15,08,40,4.20
2016,10,15,08,41,4.00
2016,10,15,08,42,4.90
2016,10,15,08,43,4.70
2016,10,15,08,44,6.10
2016,10,15,08,45,5.30
2016,10,15,08,46,6.40
2016,10,15,08,47,4.10
2016,10,15,08,48,4.90
2016,10,15,08,49,5.70
2016,10,15,08,50,6.10
2016,10,15,08,51,6.80
2016,10,15,08,52,5.70
2016,10,15,08,53,4.40
2016,10,15,08,54,4.10
2016,10,15,08,55,6.40
2016,10,15,08,56,6.30
2016,10,15,08,57,6.60
2016,10,15,08,58,5.20
2016,10,15,08,59,5.10
2016,10,15,09,00,6.60
2016,10,15,09,01,6.30
2016,10,15,09,02,6.80
2016,10,15,09,03,8.30
2016,10,15,09,04,5.70
2016,10,15,09,05,5.60
2016,10,15,09,06,7.60
2016,10,15,09,07,5.50
2016,10,15,09,08,3.50
2016,10,15,09,09,4.50
2016,10,15,09,10,6.20
2016,10,15,09,11,6.80
2016,10,15,09,12,8.30
2016,10,15,09,13,10.20
2016,10,15,09,14,8.80
2016,10,15,09,15,6.20
2016,10,15,09,16,10.20
2016,10,15,09,17,8.70
2016,10,15,09,18,10.00
2016,10,15,09,19,12.30
2016,10,15,09,20,10.90
2016,10,15,09,21,8.50
2016,10,15,09,22,7.10
2016,10,15,09,23,9.10
2016,10,15,09,24,9.60
2016,10,15,09,25,8.90
2016,10,15,09,26,6.70
2016,10,15,09,27,10.40
2016,10,15,09,28,9.50
2016,10,15,09,29,9.10
2016,10,15,09,30,6.70
2016,10,15,09,31,8.30
2016,10,15,09,32,8.10
2016,10,15,09,33,7.50
2016,10,15,09,34,4.80
2016,10,15,09,35,9.30
2016,10,15,09,36,9.50
2016,10,15,09,37,8.30
2016,10,15,09,38,11.90
2016,10,15,09,39,10.70
2016,10,15,09,40,8.30
2016,10,15,09,41,7.30
2016,10,15,09,42,9.90
2016,10,15,09,43,8.40
2016,10,15,09,44,9.70
2016,10,15,09,45,6.70
2016,10,15,09,46,8.60
2016,10,15,09,47,7.50
2016,10,15,09,48,7.10
2016,10,15,09,49,11.00
2016,10,15,09,50,8.50
2016,10,15,09,51,9.50
2016,10,15,09,52,12.20
2016,10,15,09,53,10.50
2016,10,15,09,54,12.30
2016,10,15,09,55,12.70
2016,10,15,09,56,8.30
2016,10,15,09,57,9.50
2016,10,15,09,58,8.30
2016,10,15,09,59,10.20
2016,10,15,10,00,12.00
2016,10,15,10,01,11.30
2016,10,15,10,02,9.10
2016,10,15,10,03,7.00
2016,10,15,10,04,8.40
2016,10,15,10,05,9.70
2016,10,15,10,06,10.20
2016,10,15,10,07,8.20
2016,10,15,10,08,10.10
2016,10,15,10,09,7.80
2016,10,15,10,10,7.80
2016,10,15,10,11,10.50
2016,10,15,10,12,8.80
2016,10,15,10,13,10.30
2016,10,15,10,14,10.40
2016,10,15,10,15,10.70
2016,10,15,10,16,12.90
2016,10,15,10,17,14.60
2016,10,15,10,18,17.00
2016,10,15,10,19,14.40
2016,10,15,10,20,11.90
2016,10,15,10,21,10.40
2016,10,15,10,22,13.00
2016,10,15,10,23,7.10
2016,10,15,10,24,12.40
2016,10,15,10,25,11.70
2016,10,15,10,26,17.50
2016,10,15,10,27,16.80
2016,10,15,10,28,12.70
2016,10,15,10,29,9.80
2016,10,15,10,30,11.00
2016,10,15,10,31,14.80
2016,10,15,10,32,14.60
2016,10,15,10,33,14.90
2016,10,15,10,34,12.30
2016,10,15,10,35,13.50
2016,10,15,10,36,12.90
2016,10,15,10,37,12.70
2016,10,15,10,38,13.30
2016,10,15,10,39,17.00
2016,10,15,10,40,11.80
2016,10,15,10,41,8.30
2016,10,15,10,42,8.10
2016,10,15,10,43,8.70
2016,10,15,10,44,12.50
2016,10,15,10,45,14.60
2016,10,15,10,46,9.40
2016,10,15,10,47,14.00
2016,10,15,10,48,11.80
2016,10,15,10,49,8.70
2016,10,15,10,50,9.00
2016,10,15,10,51,9.80
2016,10,15,10,52,12.60
2016,10,15,10,53,14.60
2016,10,15,10,54,15.30
2016,10,15,10,55,12.90
2016,10,15,10,56,14.60
2016,10,15,10,57,12.70
2016,10,15,10,58,14.80
2016,10,15,10,59,12.80
2016,10,15,11,00,16.70
2016,10,15,11,01,15.90
2016,10,15,11,02,20.60
2016,10,15,11,03,14.60
2016,10,15,11,04,11.80
2016,10,15,11,05,11.00
2016,10,15,11,06,8.90
2016,10,15,11,07,9.30
2016,10,15,11,08,9.40
2016,10,15,11,09,12.00
2016,10,15,11,10,14.20
2016,10,15,11,11,13.40
2016,10,15,11,12,11.70
2016,10,15,11,13,9.10
2016,10,15,11,14,15.50
2016,10,15,11,15,13.80
2016,10,15,11,16,11.90
2016,10,15,11,17,11.70
2016,10,15,11,18,6.30
2016,10,15,11,19,13.20
2016,10,15,11,20,8.90
2016,10,15,11,21,10.50
2016,10,15,11,22,11.30
2016,10,15,11,23,10.80
2016,10,15,11,24,11.40
2016,10,15,11,25,15.70
2016,10,15,11,26,11.70
2016,10,15,11,27,15.40
2016,10,15,11,28,11.10
2016,10,15,11,29,10.00
2016,10,15,11,30,13.00
2016,10,15,11,31,12.00
2016,10,15,11,32,12.20
2016,10,15,11,33,11.30
2016,10,15,11,34,12.10
2016,10,15,11,35,9.30
2016,10,15,11,36,11.20
2016,10,15,11,37,11.70
2016,10,15,11,38,10.30
2016,10,15,11,39,9.90
2016,10,15,11,40,15.60
2016,10,15,11,41,17.20
2016,10,15,11,42,12.60
2016,10,15,11,43,14.30
2016,10,15,11,44,18.10
2016,10,15,11,45,17.80
2016,10,15,11,46,18.70
2016,10,15,11,47,22.50
2016,10,15,11,48,18.40
2016,10,15,11,49,18.30
2016,10,15,11,50,20.30
2016,10,15,11,51,14.70
2016,10,15,11,52,14.90
2016,10,15,11,53,18.10
2016,10,15,11,54,16.20
2016,10,15,11,55,19.00
2016,10,15,11,56,15.40
2016,10,15,11,57,18.60
2016,10,15,11,58,21.00
2016,10,15,11,59,15.10
2016,10,15,12,00,14.20
2016,10,15,12,01,20.70
2016,10,15,12,02,16.90
2016,10,15,12,03,20.30
2016,10,15,12,04,16.50
2016,10,15,12,05,14.00
2016,10,15,12,06,17.30
2016,10,15,12,07,20.30
2016,10,15,12,08,20.10
2016,10,15,12,09,19.50
2016,10,15,12,10,21.40
2016,10,15,12,11,21.30
2016,10,15,12,12,20.70
2016,10,15,12,13,25.40
2016,10,15,12,14,18.70
2016,10,15,12,15,19.50
2016,10,15,12,16,13.80
2016,10,15,12,17,22.70
2016,10,15,12,18,20.90
2016,10,15,12,19,18.60
2016,10,15,12,20,20.70
2016,10,15,12,21,14.10
2016,10,15,12,22,17.90
2016,10,15,12,23,16.10
2016,10,15,12,24,15.30
2016,10,15,12,25,13.40
2016,10,15,12,26,18.20
2016,10,15,12,27,17.60
2016,10,15,12,28,19.40
2016,10,15,12,29,17.50
2016,10,15,12,30,16.70
2016,10,15,12,31,23.10
2016,10,15,12,32,17.30
2016,10,15,12,33,19.40
2016,10,15,12,34,18.10
2016,10,15,12,35,21.50
2016,10,15,12,36,18.10
2016,10,15,12,37,19.50
2016,10,15,12,38,19.10
2016,10,15,12,39,17.90
2016,10,15,12,40,16.50
2016,10,15,12,41,25.70
2016,10,15,12,42,17.30
2016,10,15,12,43,14.10
2016,10,15,12,44,21.20
2016,10,15,12,45,17.00
2016,10,15,12,46,25.00
2016,10,15,12,47,15.40
2016,10,15,12,48,20.70
2016,10,15,12,49,22.00
2016,10,15,12,50,24.90
2016,10,15,12,51,20.80
2016,10,15,12,52,28.30
2016,10,15,12,53,25.80
2016,10,15,12,54,22.20
2016,10,15,12,55,23.30
2016,10,15,12,56,22.80
2016,10,15,12,57,20.40
2016,10,15,12,58,18.10
2016,10,15,12,59,22.20
2016,10,15,13,00,19.00
2016,10,15,13,01,23.40
2016,10,15,13,02,17.90
2016,10,15,13,03,25.40
2016,10,15,13,04,22.20
2016,10,15,13,05,20.10
2016,10,15,13,06,22.50
2016,10,15,13,07,27.70
2016,10,15,13,08,22.10
2016,10,15,13,09,23.60
2016,10,15,13,10,23.00
2016,10,15,13,11,28.30
2016,10,15,13,12,28.20
2016,10,15,13,13,25.00
2016,10,15,13,14,24.10
2016,10,15,13,15,26.30
2016,10,15,13,16,24.60
2016,10,15,13,17,31.00
2016,10,15,13,18,22.70
2016,10,15,13,19,29.30
2016,10,15,13,20,25.80
2016,10,15,13,21,23.60
2016,10,15,13,22,23.40
2016,10,15,13,23,20.50
2016,10,15,13,24,23.90
2016,10,15,13,25,26.90
2016,10,15,13,26,18.70
2016,10,15,13,27,19.50
2016,10,15,13,28,23.80
2016,10,15,13,29,20.40
2016,10,15,13,30,21.00
2016,10,15,13,31,18.20
2016,10,15,13,32,24.10
2016,10,15,13,33,23.80
2016,10,15,13,34,26.90
2016,10,15,13,35,19.00
2016,10,15,13,36,18.50
2016,10,15,13,37,20.20
2016,10,15,13,38,22.80
2016,10,15,13,39,20.60
2016,10,15,13,40,22.10
2016,10,15,13,41,24.20
2016,10,15,13,42,21.90
2016,10,15,13,43,24.30
2016,10,15,13,44,20.90
2016,10,15,13,45,21.70
2016,10,15,13,46,20.30
2016,10,15,13,47,28.60
2016,10,15,13,48,22.40
2016,10,15,13,49,28.80
2016,10,15,13,50,29.20
2016,10,15,13,51,25.50
2016,10,15,13,52,26.00
2016,10,15,13,53,26.70
2016,10,15,13,54,19.50
2016,10,15,13,55,23.50
2016,10,15,13,56,23.80
2016,10,15,13,57,19.60
2016,10,15,13,58,24.40
2016,10,15,13,59,20.90
2016,10,15,14,00,18.30
2016,10,15,14,01,23.70
2016,10,15,14,02,21.10
2016,10,15,14,03,21.50
2016,10,15,14,04,21.40
2016,10,15,14,05,18.00
2016,10,15,14,06,21.60
2016,10,15,14,07,26.70
2016,10,15,14,08,24.10
2016,10,15,14,09,21.40
2016,10,15,14,10,17.20
2016,10,15,14,11,22.30
2016,10,15,14,12,21.30
2016,10,15,14,13,21.10
2016,10,15,14,14,18.10
2016,10,15,14,15,18.10
2016,10,15,14,16,15.90
2016,10,15,14,17,20.80
2016,10,15,14,18,21.50
2016,10,15,14,19,21.80
2016,10,15,14,20,21.60
2016,10,15,14,21,15.70
2016,10,15,14,22,24.80
2016,10,15,14,23,21.80
2016,10,15,14,24,23.10
2016,10,15,14,25,20.30
2016,10,15,14,26,22.90
2016,10,15,14,27,24.90
2016,10,15,14,28,23.90
2016,10,15,14,29,33.20
2016,10,15,14,30,25.20
2016,10,15,14,31,26.50
2016,10,15,14,32,26.20
2016,10,15,14,33,23.70
2016,10,15,14,34,25.90
2016,10,15,14,35,22.00
2016,10,15,14,36,23.70
2016,10,15,14,37,21.70
2016,10,15,14,38,17.90
2016,10,15,14,39,20.70
2016,10,15,14,40,12.70
2016,10,15,14,41,21.10
2016,10,15,14,42,20.60
2016,10,15,14,43,24.70
2016,10,15,14,44,21.00
2016,10,15,14,45,18.10
2016,10,15,14,46,22.60
2016,10,15,14,47,25.40
2016,10,15,14,48,25.20
2016,10,15,14,49,28.10
2016,10,15,14,50,24.00
2016,10,15,14,51,18.40
2016,10,15,14,52,23.60
2016,10,15,14,53,20.90
2016,10,15,14,54,18.80
2016,10,15,14,55,20.20
2016,10,15,14,56,16.60
2016,10,15,14,57,17.40
2016,10,15,14,58,12.90
2016,10,15,14,59,14.40
2016,10,15,15,00,17.20
2016,10,15,15,01,16.40
2016,10,15,15,02,17.70
2016,10,15,15,03,14.60
2016,10,15,15,04,11.30
2016,10,15,15,05,14.90
2016,10,15,15,06,23.20
2016,10,15,15,07,22.20
2016,10,15,15,08,24.10
2016,10,15,15,09,18.90
2016,10,15,15,10,28.60
2016,10,15,15,11,26.20
2016,10,15,15,12,19.60
2016,10,15,15,13,27.60
2016,10,15,15,14,20.80
2016,10,15,15,15,26.10
2016,10,15,15,16,30.90
2016,10,15,15,17,24.10
2016,10,15,15,18,28.30
2016,10,15,15,19,25.30
2016,10,15,15,20,24.10
2016,10,15,15,21,29.10
2016,10,15,15,22,22.00
2016,10,15,15,23,28.50
2016,10,15,15,24,29.00
2016,10,15,15,25,21.60
2016,10,15,15,26,14.60
2016,10,15,15,27,15.20
2016,10,15,15,28,17.20
2016,10,15,15,29,23.30
2016,10,15,15,30,24.90
2016,10,15,15,31,21.80
2016,10,15,15,32,22.20
2016,10,15,15,33,23.80
2016,10,15,15,34,25.60
2016,10,15,15,35,24.10
2016,10,15,15,36,19.70
2016,10,15,15,37,19.40
2016,10,15,15,38,20.60
2016,10,15,15,39,24.50
2016,10,15,15,40,23.40
2016,10,15,15,41,22.90
2016,10,15,15,42,20.20
2016,10,15,15,43,30.10
2016,10,15,15,44,29.30
2016,10,15,15,45,30.00
2016,10,15,15,46,20.30
2016,10,15,15,47,25.10
2016,10,15,15,48,22.90
2016,10,15,15,49,26.10
2016,10,15,15,50,22.40
2016,10,15,15,51,23.90
2016,10,15,15,52,22.50
2016,10,15,15,53,19.40
2016,10,15,15,54,23.10
2016,10,15,15,55,21.40
2016,10,15,15,56,20.60
2016,10,15,15,57,18.00
2016,10,15,15,58,14.30
2016,10,15,15,59,13.60
2016,10,15,16,00,20.00
2016,10,15,16,01,23.80
2016,10,15,16,02,21.60
2016,10,15,16,03,23.40
2016,10,15,16,04,16.80
2016,10,15,16,05,22.70
2016,10,15,16,06,18.50
2016,10,15,16,07,21.20
2016,10,15,16,08,19.30
2016,10,15,16,09,21.70
2016,10,15,16,10,15.80
2016,10,15,16,11,18.00
2016,10,15,16,12,17.30
2016,10,15,16,13,12.90
2016,10,15,16,14,19.70
2016,10,15,16,15,13.70
2016,10,15,16,16,14.80
2016,10,15,16,17,13.60
2016,10,15,16,18,13.30
2016,10,15,16,19,11.20
2016,10,15,16,20,15.60
2016,10,15,16,21,14.20
2016,10,15,16,22,12.30
2016,10,15,16,23,24.20
2016,10,15,16,24,19.20
2016,10,15,16,25,14.30
2016,10,15,16,26,21.70
2016,10,15,16,27,28.80
2016,10,15,16,28,22.60
2016,10,15,16,29,24.40
2016,10,15,16,30,21.50
2016,10,15,16,31,24.30
2016,10,15,16,32,27.50
2016,10,15,16,33,19.30
2016,10,15,16,34,18.30
2016,10,15,16,35,29.80
2016,10,15,16,36,43.70
2016,10,15,16,37,34.80
2016,10,15,16,38,30.20
2016,10,15,16,39,32.90
2016,10,15,16,40,27.00
2016,10,15,16,41,36.10
2016,10,15,16,42,34.70
2016,10,15,16,43,22.90
2016,10,15,16,44,33.90
2016,10,15,16,45,30.70
2016,10,15,16,46,33.00
2016,10,15,16,47,37.90
2016,10,15,16,48,30.90
2016,10,15,16,49,39.50
2016,10,15,16,50,32.30
2016,10,15,16,51,26.40
2016,10,15,16,52,31.20
2016,10,15,16,53,44.80
2016,10,15,16,54,33.60
2016,10,15,16,55,25.40
2016,10,15,16,56,33.90
2016,10,15,16,57,27.40
2016,10,15,16,58,20.60
2016,10,15,16,59,28.50
2016,10,15,17,00,30.00
2016,10,15,17,01,30.70
2016,10,15,17,02,36.60
2016,10,15,17,03,36.20
2016,10,15,17,04,36.90
2016,10,15,17,05,31.10
2016,10,15,17,06,24.80
2016,10,15,17,07,34.50
2016,10,15,17,08,38.20
2016,10,15,17,09,33.00
2016,10,15,17,10,32.20
2016,10,15,17,11,42.10
2016,10,15,17,12,40.00
2016,10,15,17,13,33.50
2016,10,15,17,14,34.00
2016,10,15,17,15,26.30
2016,10,15,17,16,34.90
2016,10,15,17,17,29.40
2016,10,15,17,18,29.60
2016,10,15,17,19,37.20
2016,10,15,17,20,38.10
2016,10,15,17,21,32.20
2016,10,15,17,22,36.00
2016,10,15,17,23,42.00
2016,10,15,17,24,30.60
2016,10,15,17,25,33.10
2016,10,15,17,26,29.80
2016,10,15,17,27,25.60
2016,10,15,17,28,32.10
2016,10,15,17,29,25.00
2016,10,15,17,30,27.40
2016,10,15,17,31,26.30
2016,10,15,17,32,25.40
2016,10,15,17,33,20.90
2016,10,15,17,34,25.80
2016,10,15,17,35,25.20
2016,10,15,17,36,24.40
2016,10,15,17,37,24.20
2016,10,15,17,38,19.70
2016,10,15,17,39,24.30
2016,10,15,17,40,24.10
2016,10,15,17,41,25.50
2016,10,15,17,42,23.40
2016,10,15,17,43,32.00
2016,10,15,17,44,28.50
2016,10,15,17,45,28.10